{"data":{"norad_id":65925,"epoch":"2026-05-24T18:58:23.837952Z","epoch_age_seconds":90325,"freshness":"FRESH","line1":"1 65925U 25225R   26144.79055368  .00007848  00000+0  27680-3 0  9995","line2":"2 65925  53.1587 171.8967 0001269  83.0826 277.0319 15.30201912 36060","mean_motion":15.30201912,"eccentricity":0.0001269,"inclination_deg":53.1587,"raan_deg":171.8967,"arg_perigee_deg":83.0826,"mean_anomaly_deg":277.0319,"bstar":0.0002768,"rev_number":3606,"period_min":94.105228121032,"perigee_km":474.33967088476,"apogee_km":476.07905019106,"semimajor_km":6853.3463605379,"source":"CELESTRAK","updated_at":"2026-05-25T13:38:20.989347Z"}}